Weather History for KMQY - April, 2012

Change the Weather History Date:

Saturday, April 28, 2012

  Actual Average Record
Temperature  
Mean Temperature 70 °F -  
Max Temperature 86 °F 69 °F 86 °F (2012)
Min Temperature 55 °F 52 °F 41 °F (2006)
Cooling Degree Days 6    
Growing Degree Days 20 (Base 50)    
Moisture  
Dew Point 58 °F    
Average Humidity 66    
Maximum Humidity 96    
Minimum Humidity 36    
Precipitation  
Precipitation 0.00 in - - ()
Sea Level Pressure  
Sea Level Pressure 30.00 in    
Wind  
Wind Speed 4 mph (SW)    
Max Wind Speed 13 mph    
Max Gust Speed 17 mph    
Visibility 10 miles    
Events      
Averages and records for this station are not official NWS values.
T = Trace of Precipitation, MM = Missing Value Source: NWS Daily Summary

Daily Weather History Graph

Daily Weather History Graph

Search for Another Location

Airport or City:

Trip Planner

Search our weather history database for the weather conditions in past years. The results will help you decide how hot, cold, wet, or windy it might be!

Date:

Astronomy

Apr. 28, 2012 Rise Set
Actual Time 5:56 AM CDT 7:31 PM CDT
Civil Twilight 5:29 AM CDT 7:58 PM CDT
Nautical Twilight 4:56 AM CDT 8:31 PM CDT
Astronomical Twilight 4:21 AM CDT 9:06 PM CDT
Moon 11:36 AM CDT (4/28) 12:54 AM CDT (4/28)
Length of Visible Light 14h 29m
Length of Day
13h 34m
Waxing Crescent, 43% of the Moon is Illuminated
Apr 28
Waxing Crescent
Apr 29
First Quarter
May 5
Full
May 12
Last Quarter
May 20
New

Hourly Weather History & Observations

Time (CDT) Temp. Heat Index Dew Point Humidity Pressure Visibility Wind Dir Wind Speed Gust Speed Precip Events Conditions
12:56 AM 59.0 °F - 48.9 °F 69% 29.99 in 10.0 mi Calm Calm - N/A   Clear
1:56 AM 55.9 °F - 50.9 °F 83% 29.98 in 10.0 mi Calm Calm - N/A   Clear
3:56 AM 55.9 °F - 52.9 °F 89% 30.00 in 10.0 mi Calm Calm - N/A   Clear
4:56 AM 55.9 °F - 52.9 °F 89% 29.99 in 10.0 mi South 4.6 mph - N/A   Clear
5:56 AM 59.0 °F - 57.9 °F 96% 29.99 in 10.0 mi Calm Calm - N/A   Clear
6:56 AM 61.0 °F - 59.9 °F 96% 30.02 in 8.0 mi Calm Calm - N/A   Clear
7:56 AM 64.9 °F - 63.9 °F 96% 30.04 in 10.0 mi South 6.9 mph - N/A   Clear
8:56 AM 72.0 °F - 63.0 °F 73% 30.02 in 10.0 mi SSW 8.1 mph - N/A   Clear
9:56 AM 75.9 °F - 63.9 °F 66% 30.01 in 10.0 mi WSW 9.2 mph - N/A   Partly Cloudy
10:56 AM 79.0 °F - 63.0 °F 58% 30.02 in 10.0 mi West 11.5 mph - N/A   Mostly Cloudy
11:56 AM 79.9 °F - 61.9 °F 54% 30.01 in 10.0 mi WSW 11.5 mph - N/A   Mostly Cloudy
12:56 PM 82.9 °F 83.7 °F 61.9 °F 49% 29.99 in 10.0 mi SW 11.5 mph - N/A   Clear
1:56 PM 83.8 °F 83.8 °F 59.9 °F 44% 29.98 in 10.0 mi SW 8.1 mph - N/A   Clear
2:56 PM 84.9 °F 84.4 °F 59.0 °F 41% 29.96 in 10.0 mi SW 8.1 mph 16.1 mph N/A   Clear
3:56 PM 86.0 °F 84.7 °F 55.9 °F 36% 29.94 in 10.0 mi SW 9.2 mph - N/A   Clear
4:56 PM 84.9 °F 83.7 °F 55.9 °F 37% 29.94 in 10.0 mi SSW 12.7 mph 17.3 mph N/A   Clear
5:56 PM 82.9 °F 82.1 °F 55.9 °F 39% 29.93 in 10.0 mi SW 11.5 mph - N/A   Clear
6:56 PM 79.9 °F - 55.9 °F 44% 29.95 in 10.0 mi SW 6.9 mph - N/A   Clear
7:56 PM 74.8 °F - 55.9 °F 52% 29.97 in 10.0 mi Calm Calm - N/A   Clear
8:56 PM 68.9 °F - 57.9 °F 68% 30.01 in 10.0 mi Calm Calm - N/A   Clear
9:56 PM 68.0 °F - 59.0 °F 73% 30.05 in 10.0 mi Calm Calm - N/A   Clear
10:56 PM 66.9 °F - 59.9 °F 78% 30.06 in 10.0 mi Calm Calm - N/A   Clear
11:56 PM 63.9 °F - 59.0 °F 84% 30.07 in 10.0 mi Calm Calm - 0.00 in   Clear